Location: Cary
(35.7910°N, 78.7810°W)
Time: 20:29:40
(UTC-05:00)

N. Korean satellite - Pass Details

Date: 07 December 2021
Orbit: 446 x 492 km, 97.3° (Epoch: 18 January)

Event Time Altitude Azimuth Distance (km) Brightness Sun altitude
Rises 06:11:45 0° 354° (N) 2,453 9.9 -12.0°
Reaches altitude 10° 06:14:10 10° 336° (NNW) 1,576 8.8 -11.6°
Maximum altitude 06:16:38 19° 289° (WNW) 1,119 7.7 -11.1°
Drops below altitude 10° 06:19:06 10° 241° (WSW) 1,571 8.8 -10.6°
Sets 06:21:30 0° 223° (SW) 2,442 9.9 -10.2°
